K5GTX Weather Reports


time (UTC)temp
C
wind
direction
speed
KPH
gust
KPH
rain 1hr
cm
rain 24hr
cm
rain mn
cm
humidity
%
barometer
mb
20260507010538 15 75 4.8 6.4 0.00 0.00 0.00 99 1021.9
20260507010035 15 90 0.0 8.0 0.00 0.00 0.00 99 1021.9
20260507005533 15 32 4.8 4.8 0.00 0.00 0.00 99 1021.9
20260507005029 15 75 0.0 6.4 0.00 0.00 0.00 99 1021.6
20260507004526 15 84 0.0 4.8 0.00 0.00 0.00 99 1021.6
20260507004023 15 33 3.2 4.8 0.00 0.00 0.00 99 1021.6
20260507003519 15 90 0.0 9.7 0.00 0.00 0.00 99 1021.5
20260507003014 15 37 0.0 8.0 0.00 0.00 0.00 99 1021.7
20260507002511 15 77 3.2 11.3 0.00 0.00 0.00 99 1021.3
20260507002007 15 6 0.0 8.0 0.00 0.00 0.00 99 1021.6
20260507001503 15 90 3.2 14.5 0.00 0.00 0.00 99 1021.2
20260507001001 15 105 4.8 14.5 0.00 0.00 0.00 99 1021.2
20260507000457 15 105 0.0 11.3 0.00 0.00 0.00 99 1021.2
20260506235952 15 45 3.2 6.4 0.00 0.00 0.00 99 1021.2
20260506235450 15 95 3.2 8.0 0.00 0.00 0.00 99 1020.9
20260506234946 15 56 9.7 9.7 0.00 0.00 0.00 99 1020.8
20260506234443 15 100 0.0 4.8 0.00 0.00 0.00 99 1020.9
20260506233941 15 55 4.8 11.3 0.00 0.00 0.00 99 1021.2
20260506233437 15 92 8.0 14.5 0.00 0.00 0.00 99 1021.2
20260506232934 15 114 3.2 8.0 0.00 0.00 0.00 99 1021.0
20260506232430 15 302 4.8 11.3 0.00 0.00 0.00 99 1020.6
20260506231926 15 42 4.8 14.5 0.00 0.00 0.00 99 1020.8
20260506231423 15 62 12.9 12.9 0.00 0.00 0.00 99 1020.6
20260506230921 15 121 3.2 14.5 0.00 0.00 0.00 99 1020.7
20260506230417 15 90 3.2 6.4 0.00 0.00 0.00 99 1020.9
20260506225914 15 65 0.0 6.4 0.00 0.00 0.00 99 1020.9
20260506225411 15 66 0.0 11.3 0.00 0.00 0.00 99 1020.6
20260506224908 15 25 4.8 8.0 0.00 0.00 0.00 99 1021.0
20260506224405 15 90 1.6 3.2 0.00 0.00 0.00 99 1020.9
20260506223901 15 66 1.6 4.8 0.00 0.00 0.00 99 1020.9
20260506223357 15 70 3.2 11.3 0.00 0.00 0.00 99 1020.6
20260506222854 15 0 0.0 12.9 0.00 0.00 0.00 99 1020.8
20260506222350 15 90 3.2 9.7 0.00 0.00 0.00 99 1020.7
20260506221848 15 67 4.8 8.0 0.00 0.00 0.00 99 1020.9
20260506221345 15 21 9.7 14.5 0.00 0.00 0.00 99 1020.6
20260506220842 15 47 4.8 11.3 0.00 0.00 0.00 99 1020.5
20260506220338 15 12 4.8 14.5 0.00 0.00 0.00 99 1020.5
20260506215835 15 349 0.0 4.8 0.00 0.00 0.00 99 1020.1
20260506215330 15 9 3.2 12.9 0.00 0.00 0.00 99 1020.1
20260506214827 15 345 3.2 17.7 0.00 0.00 0.00 99 1020.3
20260506214323 15 324 8.0 11.3 0.00 0.00 0.00 99 1020.3
20260506213822 15 10 4.8 14.5 0.00 0.00 0.00 99 1020.3
20260506213319 15 39 8.0 11.3 0.00 0.00 0.00 99 1020.9
20260506212816 15 73 3.2 12.9 0.00 0.00 0.00 99 1020.5
20260506212312 15 100 3.2 9.7 0.00 0.00 0.00 99 1020.6
20260506211807 15 35 4.8 9.7 0.00 0.00 0.00 99 1020.5
20260506211303 16 352 0.0 3.2 0.00 0.00 0.00 99 1020.5
20260506210801 15 328 3.2 12.9 0.00 0.00 0.00 99 1020.4
20260506210257 15 73 8.0 8.0 0.00 0.00 0.00 99 1020.5
20260506205754 16 102 3.2 12.9 0.00 0.00 0.00 99 1020.7
20260506205250 16 36 3.2 6.4 0.00 0.00 0.00 99 1020.7
20260506204747 15 33 6.4 17.7 0.00 0.00 0.00 99 1020.7
20260506204245 15 32 4.8 9.7 0.00 0.00 0.00 99 1020.3
20260506203742 15 28 12.9 19.3 0.00 0.00 0.00 99 1020.8
20260506203239 15 80 3.2 12.9 0.00 0.00 0.00 99 1021.0
20260506202736 15 330 0.0 14.5 0.00 0.00 0.00 99 1021.2
20260506202233 15 30 6.4 9.7 0.00 0.00 0.00 99 1021.2
20260506201730 15 17 8.0 14.5 0.00 0.00 0.00 99 1020.9
20260506201226 15 51 3.2 14.5 0.00 0.00 0.00 99 1021.1
20260506200723 15 293 4.8 16.1 0.00 0.00 0.00 99 1021.0
20260506200220 15 15 4.8 14.5 0.00 0.00 0.00 99 1020.8
20260506195716 15 290 3.2 9.7 0.00 0.00 0.00 99 1021.3
20260506195212 14 32 3.2 9.7 0.00 0.00 0.00 99 1021.5
20260506194705 13 0 0.0 4.8 0.00 0.00 0.00 99 1021.3
20260506194201 13 33 6.4 9.7 0.00 0.00 0.00 99 1021.6
20260506193659 13 18 1.6 4.8 0.00 0.00 0.00 99 1021.7
20260506193155 13 336 3.2 4.8 0.00 0.00 0.00 99 1021.7
20260506192652 14 29 0.0 4.8 0.00 0.00 0.00 99 1021.3
20260506192148 13 25 8.0 8.0 0.00 0.00 0.00 99 1021.3
20260506191646 13 33 3.2 4.8 0.00 0.00 0.00 99 1021.4
20260506191141 13 0 3.2 4.8 0.00 0.00 0.00 99 1021.8
20260506190639 13 63 0.0 4.8 0.00 0.00 0.00 99 1022.0
20260506190135 13 30 0.0 4.8 0.00 0.00 0.00 99 1021.6
20260506185633 13 332 3.2 6.4 0.00 0.00 0.00 99 1021.6
20260506185129 13 15 1.6 8.0 0.00 0.00 0.00 99 1021.4
20260506184626 13 0 3.2 6.4 0.00 0.00 0.00 99 1021.1
20260506184123 13 0 0.0 11.3 0.00 0.00 0.00 99 1021.0
20260506183620 13 24 9.7 9.7 0.00 0.00 0.00 99 1020.5
20260506183116 13 7 4.8 11.3 0.00 0.00 0.00 99 1020.4
20260506182614 13 348 0.0 12.9 0.00 0.00 0.00 99 1020.3
20260506182110 13 17 9.7 14.5 0.00 0.00 0.00 99 1020.3
20260506181609 13 10 6.4 14.5 0.00 0.00 0.00 99 1019.9
20260506181105 13 16 8.0 12.9 0.00 0.00 0.00 99 1019.8
20260506180602 12 8 4.8 11.3 0.00 0.00 0.00 99 1020.1
20260506180059 12 8 0.0 9.7 0.00 0.00 0.00 99 1020.5
20260506175555 12 291 1.6 8.0 0.00 0.00 0.00 99 1020.9
20260506175051 12 45 4.8 12.9 0.00 0.00 0.00 99 1020.8
20260506174550 12 2 4.8 9.7 0.00 0.00 0.00 99 1020.9
20260506174046 12 18 0.0 14.5 0.00 0.00 0.00 99 1020.9
20260506173544 12 32 1.6 11.3 0.00 0.00 0.00 99 1020.8
20260506173040 12 4 4.8 14.5 0.00 0.00 0.00 99 1020.6
20260506172538 12 37 8.0 11.3 0.00 0.00 0.00 99 1020.9
20260506172034 12 15 1.6 11.3 0.00 0.00 0.00 99 1020.8
20260506171531 12 345 8.0 8.0 0.00 0.00 0.00 99 1020.8
20260506171029 12 21 6.4 11.3 0.00 0.00 0.00 99 1021.2
20260506170526 11 15 9.7 14.5 0.00 0.00 0.00 99 1020.9
20260506170018 11 13 6.4 14.5 0.00 0.00 0.00 99 1021.3
20260506165516 11 353 8.0 14.5 0.00 0.00 0.00 99 1021.4
20260506165012 11 353 3.2 17.7 0.00 0.00 0.00 99 1021.7
20260506164509 11 45 11.3 11.3 0.00 0.00 0.00 99 1021.6
20260506164007 11 16 3.2 9.7 0.00 0.00 0.00 99 1021.9
20260506163502 11 78 6.4 11.3 0.00 0.00 0.00 99 1021.8
20260506162956 11 31 11.3 11.3 0.00 0.00 0.00 99 1022.0
20260506162454 11 0 0.0 9.7 0.00 0.00 0.00 99 1022.1
20260506161951 11 16 0.0 4.8 0.00 0.00 0.00 99 1022.0
20260506161449 12 11 0.0 3.2 0.00 0.00 0.00 99 1022.0
20260506160946 11 312 0.0 6.4 0.00 0.00 0.00 99 1021.4
20260506160444 11 59 0.0 6.4 0.00 0.00 0.00 99 1020.5
20260506155941 11 34 3.2 8.0 0.00 0.00 0.00 99 1020.6
20260506155438 11 6 6.4 6.4 0.00 0.00 0.00 99 1020.6
20260506153605 11 12 1.6 9.7 0.00 0.00 0.00 99 1023.3
20260506153103 11 330 3.2 9.7 0.00 0.00 0.00 99 1023.3
20260506152559 12 339 4.8 12.9 0.00 0.00 0.00 99 1022.8
20260506152057 12 352 8.0 8.0 0.00 0.00 0.00 99 1022.3
20260506151555 12 73 8.0 8.0 0.00 0.00 0.00 99 1022.0
20260506151052 12 23 8.0 9.7 0.00 0.00 0.00 99 1021.5
20260506150548 12 46 6.4 16.1 0.00 0.00 0.00 99 1021.6
20260506150045 12 28 6.4 24.1 0.00 0.00 0.00 99 1020.6
20260506145542 12 26 12.9 19.3 0.00 0.00 0.00 99 1021.5
20260506145040 12 23 14.5 16.1 0.00 0.00 0.00 99 1021.5
20260506144536 12 355 3.2 16.1 0.00 0.00 0.00 99 1021.5
20260506144034 12 0 4.8 14.5 0.00 0.00 0.00 99 1021.7
20260506143531 12 48 9.7 9.7 0.00 0.00 0.00 99 1021.6
20260506143030 12 5 11.3 14.5 0.00 0.00 0.00 99 1021.8
20260506142527 12 41 19.3 19.3 0.00 0.00 0.00 99 1021.4
20260506142025 12 15 3.2 14.5 0.00 0.00 0.00 99 1021.2
20260506141522 12 9 8.0 17.7 0.00 0.00 0.00 99 1020.7
20260506141021 12 13 4.8 14.5 0.00 0.00 0.00 99 1021.2
20260506140518 12 352 4.8 11.3 0.00 0.00 0.00 99 1020.8
20260506140015 11 95 3.2 14.5 0.00 0.00 0.00 99 1020.7
20260506135512 11 67 6.4 17.7 0.00 0.00 0.00 99 1020.6
20260506135008 11 7 8.0 16.1 0.00 0.00 0.00 99 1020.6
20260506134504 12 57 6.4 16.1 0.00 0.00 0.00 99 1020.6
20260506134000 11 28 4.8 8.0 0.00 0.00 0.00 99 1020.4
20260506133457 12 33 16.1 16.1 0.00 0.00 0.00 99 1020.3
20260506132954 11 106 0.0 12.9 0.00 0.00 0.00 99 1020.7
20260506132451 11 3 8.0 16.1 0.00 0.00 0.00 99 1020.0
20260506131949 11 291 1.6 9.7 0.00 0.00 0.00 99 1019.9
20260506131445 11 71 0.0 8.0 0.00 0.00 0.00 99 1019.8
20260506130942 11 121 3.2 11.3 0.00 0.00 0.00 99 1019.9
20260506130439 11 66 3.2 11.3 0.00 0.00 0.00 99 1020.1
20260506125937 11 11 4.8 9.7 0.00 0.00 0.00 99 1019.9
20260506125435 11 300 1.6 8.0 0.00 0.00 0.00 99 1019.9
20260506124933 11 354 8.0 19.3 0.00 0.00 0.00 99 1019.9
20260506124430 11 4 16.1 19.3 0.00 0.00 0.00 99 1019.9
20260506123928 11 19 8.0 17.7 0.00 0.00 0.00 99 1019.7
20260506123426 11 86 3.2 12.9 0.00 0.00 0.00 99 1019.9
20260506122923 11 347 8.0 14.5 0.00 0.00 0.00 99 1019.7
20260506122419 11 7 14.5 14.5 0.00 0.00 0.00 99 1019.6
20260506121918 11 17 17.7 22.5 0.00 0.00 0.00 99 1019.5
20260506121414 11 14 9.7 17.7 0.00 0.00 0.00 99 1019.3
20260506120911 12 0 3.2 8.0 0.00 0.00 0.00 99 1019.6
20260506120409 12 90 0.0 12.9 0.00 0.00 0.00 99 1019.7
20260506115906 11 319 6.4 29.0 0.00 0.00 0.00 99 1019.6
20260506115404 11 39 11.3 27.4 0.00 0.00 0.00 99 1019.1
20260506114902 12 0 4.8 14.5 0.00 0.00 0.00 99 1019.5
20260506114359 12 14 3.2 16.1 0.00 0.00 0.00 99 1019.2
20260506113858 12 12 4.8 22.5 0.00 0.00 0.00 99 1018.8
20260506113355 12 32 14.5 17.7 0.00 0.00 0.00 99 1018.7
20260506112852 12 50 4.8 24.1 0.00 0.00 0.00 99 1018.7
20260506112349 12 88 9.7 24.1 0.00 0.00 0.00 99 1018.9
20260506111846 12 333 11.3 16.1 0.00 0.00 0.00 99 1018.5
20260506111344 12 261 3.2 22.5 0.00 0.00 0.00 99 1018.4
20260506110841 12 8 4.8 14.5 0.00 0.00 0.00 99 1018.5
20260506110338 12 52 17.7 27.4 0.00 0.00 0.00 99 1018.4
20260506105835 12 302 11.3 24.1 0.00 0.00 0.00 99 1018.3
20260506105332 12 56 6.4 14.5 0.00 0.00 0.00 99 1018.5
20260506104829 12 61 12.9 22.5 0.00 0.00 0.00 99 1018.1
20260506104327 12 33 12.9 12.9 0.00 0.00 0.00 99 1018.3
20260506103824 12 50 9.7 20.9 0.00 0.00 0.00 99 1017.9
20260506103322 13 5 6.4 12.9 0.00 0.00 0.00 99 1017.9
20260506102819 12 33 8.0 14.5 0.00 0.00 0.00 99 1017.8
20260506102317 13 16 6.4 17.7 0.00 0.00 0.00 99 1017.7
20260506101814 13 312 6.4 16.1 0.00 0.00 0.00 99 1017.7
20260506101310 13 322 6.4 17.7 0.00 0.00 0.00 99 1017.4
20260506100808 13 60 14.5 14.5 0.00 0.00 0.00 99 1017.3
20260506100306 13 11 4.8 14.5 0.00 0.00 0.00 99 1017.4
20260506095804 13 18 6.4 16.1 0.00 0.00 0.00 99 1017.3
20260506095301 13 62 12.9 17.7 0.00 0.00 0.00 99 1017.2
20260506094757 13 24 11.3 16.1 0.00 0.00 0.00 99 1017.2
20260506094256 13 19 6.4 19.3 0.00 0.00 0.00 99 1017.2
20260506093754 13 346 6.4 14.5 0.00 0.00 0.00 99 1017.2
20260506093251 13 26 6.4 14.5 0.00 0.00 0.00 99 1017.1
20260506092749 13 56 8.0 11.3 0.00 0.00 0.00 99 1017.2
20260506092246 13 10 4.8 12.9 0.00 0.00 0.00 99 1017.2
20260506091743 13 44 11.3 11.3 0.00 0.00 0.00 99 1017.0
20260506091241 14 21 3.2 3.2 0.00 0.00 0.00 99 1017.1
20260506090739 13 26 8.0 12.9 0.00 0.00 0.00 99 1016.8
20260506090235 14 70 6.4 17.7 0.00 0.00 0.00 99 1017.0
20260506085732 14 3 4.8 14.5 0.00 0.00 0.00 99 1016.9
20260506085228 14 13 6.4 9.7 0.00 0.00 0.00 99 1016.8
20260506084726 14 339 8.0 14.5 0.00 0.00 0.00 99 1016.7
20260506084221 14 326 3.2 8.0 0.00 0.00 0.00 99 1016.8
20260506083718 14 90 6.4 11.3 0.00 0.00 0.00 99 1016.6
20260506083216 13 24 8.0 11.3 0.00 0.00 0.00 99 1016.6
20260506082713 13 29 4.8 12.9 0.00 0.00 0.00 99 1016.5
20260506082209 13 90 0.0 14.5 0.00 0.00 0.00 99 1016.5
20260506081707 13 95 3.2 12.9 0.00 0.00 0.00 99 1016.5
20260506081204 13 13 8.0 11.3 0.00 0.00 0.00 99 1016.0
20260506080701 13 61 3.2 11.3 0.00 0.00 0.00 99 1016.4
20260506080158 14 96 1.6 6.4 0.00 0.00 0.00 99 1016.3
20260506073143 14 0 0.0 16.1 0.00 0.00 0.00 99 1016.4
20260506072638 14 29 4.8 16.1 0.00 0.00 0.00 99 1016.3
20260506072137 15 30 8.0 9.7 0.00 0.00 0.00 99 1016.5
20260506071634 14 22 4.8 11.3 0.00 0.00 0.00 99 1016.4
20260506071131 14 10 4.8 6.4 0.00 0.00 0.00 99 1016.3
20260506070628 14 31 9.7 12.9 0.00 0.00 0.00 99 1016.4
20260506070126 15 353 4.8 11.3 0.00 0.00 0.00 99 1016.4
20260506062103 15 25 4.8 8.0 0.00 0.00 0.00 99 1016.1
20260506061558 15 297 3.2 11.3 0.00 0.00 0.00 99 1016.4
20260506061056 15 58 9.7 12.9 0.00 0.00 0.00 99 1016.2
20260506060555 15 36 4.8 16.1 0.00 0.00 0.00 99 1016.1
20260506051024 16 0 0.0 12.9 0.00 0.00 0.00 99 1016.3
20260506050521 16 49 8.0 12.9 0.00 0.00 0.00 99 1016.2
20260506045011 16 64 4.8 17.7 0.00 0.00 0.00 99 1016.0
20260506044510 16 312 6.4 11.3 0.00 0.00 0.00 99 1016.2
20260506044006 17 5 9.7 16.1 0.00 0.00 0.00 99 1016.2
20260506043503 17 24 8.0 11.3 0.00 0.00 0.00 99 1015.8
20260506043001 17 9 8.0 12.9 0.00 0.00 0.00 99 1016.0
20260506042501 17 28 9.7 14.5 0.00 0.00 0.00 99 1015.8
20260506041958 17 357 4.8 19.3 0.00 0.00 0.00 99 1016.1
20260506041456 17 48 12.9 16.1 0.00 0.00 0.00 99 1015.9
20260506040953 17 33 8.0 12.9 0.00 0.00 0.00 99 1015.5
20260506040451 17 97 4.8 11.3 0.00 0.00 0.00 99 1015.6
20260506035946 17 19 6.4 8.0 0.00 0.00 0.00 99 1015.5
20260506035444 17 36 14.5 14.5 0.00 0.00 0.00 99 1015.6
20260506034940 18 29 9.7 14.5 0.00 0.00 0.00 99 1015.5
20260506034438 18 50 6.4 25.7 0.00 0.00 0.00 99 1015.3
20260506033935 18 12 9.7 20.9 0.00 0.00 0.00 99 1015.2
20260506033432 18 26 14.5 22.5 0.00 0.00 0.00 99 1015.4
20260506032928 18 83 11.3 16.1 0.00 0.00 0.00 99 1015.2
20260506032426 18 0 4.8 19.3 0.00 0.00 0.00 99 1014.7
20260506031922 19 33 8.0 17.7 0.00 0.00 0.00 99 1014.7
20260506031419 20 50 4.8 14.5 0.00 0.00 0.00 99 1014.5
20260506030917 20 8 9.7 16.1 0.00 0.00 0.00 99 1014.6
20260506030415 20 56 3.2 20.9 0.00 0.00 0.00 99 1014.5
20260506025911 20 25 9.7 17.7 0.00 0.00 0.00 99 1014.5
20260506025409 20 29 12.9 14.5 0.00 0.00 0.00 99 1014.4
20260506024905 20 352 9.7 17.7 0.00 0.00 0.00 99 1014.5
20260506024402 20 7 6.4 16.1 0.00 0.00 0.00 99 1014.2
20260506023858 20 126 6.4 20.9 0.00 0.00 0.00 99 1013.8
20260506023355 21 0 0.0 9.7 0.00 0.00 0.00 99 1013.4
20260506022852 21 16 12.9 20.9 0.00 0.00 0.00 99 1013.5
20260506022349 21 7 14.5 17.7 0.00 0.00 0.00 99 1013.4
20260506021847 21 356 4.8 14.5 0.00 0.00 0.00 99 1013.3
20260506021344 21 16 8.0 14.5 0.00 0.00 0.00 99 1013.3
20260506020840 21 86 3.2 16.1 0.00 0.00 0.00 99 1012.9
20260506020339 22 58 4.8 16.1 0.00 0.00 0.00 99 1012.4
20260506015836 22 22 11.3 17.7 0.00 0.00 0.00 99 1012.7
20260506015334 22 43 6.4 11.3 0.00 0.00 0.00 99 1012.9
20260506014830 22 54 6.4 8.0 0.00 0.00 0.00 99 1012.7
20260506014327 22 45 6.4 8.0 0.00 0.00 0.00 99 1012.5
20260506013823 22 26 8.0 14.5 0.00 0.00 0.00 99 1012.6
20260506013321 23 15 4.8 9.7 0.00 0.00 0.00 99 1012.6
20260506012817 23 20 4.8 9.7 0.00 0.00 0.00 99 1012.4
20260506012314 23 50 4.8 11.3 0.00 0.00 0.00 99 1012.8
20260506011812 23 23 6.4 9.7 0.00 0.00 0.00 99 1012.6
20260506011308 23 65 8.0 9.7 0.00 0.00 0.00 99 1012.4
20260506010806 23 46 12.9 14.5 0.00 0.00 0.00 99 1012.3